Temp
46 46 46 46 45 45 44 42 42 42 41 40 40 39 39 39 38 37 36 36 36 36 35 34 34 33 33 32 32 32 31 31 31 30 30 30 29 29 29 28 28 29
46 46 45 46 45 44 45 44 43 42 42 41 41 40 39 38 38 37 36 36 36 36 35 34 34 33 33 32 31 31 31 30 30 30 29 29 29 29 29 28 28 27
45 45 45 45 46 44 44 42 42 42 42 42 41 40 39 39 37 37 37 36 36 35 35 34 33 33 33 32 32 32 31 30 30 29 29 29 29 29 29 28 27 27
44 45 45 45 44 43 42 41 40 41 41 39 40 40 39 37 37 36 36 36 36 35 35 34 33 33 32 32 32 32 32 31 31 29 29 29 28 28 27 27 27 26
44 44 44 44 42 40 40 40 40 40 39 39 36 37 37 36 36 36 35 35 36 35 34 33 33 33 32 32 32 31 31 31 30 29 29 28 28 28 28 27 26 26
42 43 43 43 42 41 39 39 39 38 38 37 38 36 36 36 36 36 35 35 35 35 34 33 33 32 32 32 31 32 31 31 30 29 29 29 27 27 27 27 26 26
42 42 42 42 40 40 40 39 39 39 39 39 37 36 37 36 36 36 36 35 35 35 34 33 33 32 32 32 31 32 32 31 30 29 29 29 28 26 27 26 26 26
41 39 40 39 40 40 40 41 40 40 40 38 38 38 37 37 37 36 36 35 35 35 34 34 33 33 32 32 32 32 31 31 30 29 29 29 27 26 26 27 27 26
38 38 36 37 39 40 40 41 41 41 39 39 39 38 37 37 37 36 35 35 35 35 34 34 33 33 33 32 32 32 31 31 30 29 29 28 27 27 27 26 26 26
38 39 38 38 39 40 41 41 42 41 39 38 38 37 36 36 36 36 36 35 35 34 34 34 33 33 32 32 32 32 32 31 30 29 30 29 29 28 27 26 26 25
38 38 39 39 40 41 41 41 41 40 38 38 37 37 37 36 36 36 35 35 35 34 34 34 34 33 33 32 32 33 32 31 30 30 30 30 29 29 28 27 26 26
38 38 39 40 41 41 41 41 41 40 39 37 38 38 37 37 37 36 36 35 35 35 35 34 34 33 33 32 32 32 32 32 31 30 30 30 29 29 28 27 27 26
38 38 40 40 41 41 41 40 40 40 40 39 38 38 38 37 37 36 36 36 36 36 35 34 34 33 33 32 32 32 31 31 30 29 29 29 29 28 28 27 27 27
39 39 40 40 40 40 40 40 40 40 40 40 38 37 38 37 37 36 37 36 36 36 35 34 34 33 32 32 32 31 31 31 30 29 28 28 28 27 27 27 26 26
40 40 40 39 39 39 39 40 40 40 40 39 38 38 38 38 37 37 36 35 35 35 35 34 34 33 33 32 31 31 31 30 30 29 28 27 26 26 26 26 25 25
39 39 39 39 39 38 39 39 39 39 38 38 37 37 37 37 36 36 36 35 35 34 34 34 34 34 33 35 34 32 31 30 30 29 28 27 26 25 25 25 25 25
36 37 38 37 38 38 38 37 37 38 37 37 36 36 35 35 35 35 35 36 35 34 33 33 34 34 34 36 36 36 32 30 29 28 27 27 26 25 24 24 25 25
36 36 35 36 36 36 36 36 36 35 34 34 34 33 34 34 34 35 35 35 34 34 33 33 33 34 36 36 37 36 34 30 29 27 26 26 26 25 26 25 25 25
35 34 34 34 34 35 35 34 34 34 33 32 32 33 32 32 33 33 33 34 33 32 32 32 32 35 36 36 36 37 36 32 28 27 26 26 26 26 26 25 25 24
33 33 32 33 33 32 31 31 31 31 32 32 31 30 31 31 31 32 32 32 33 32 32 32 31 34 36 36 36 36 36 33 27 27 26 26 26 26 26 26 25 24
32 31 31 32 31 30 29 29 29 29 30 29 30 30 30 30 30 30 30 30 31 31 31 31 31 34 36 36 36 37 36 34 27 27 26 26 26 26 26 26 26 25
31 30 30 30 30 29 27 28 28 28 29 29 29 29 29 30 30 29 29 29 30 29 30 29 29 34 35 36 36 36 36 31 26 25 24 25 25 26 26 26 25 25
30 29 28 29 29 27 27 26 27 26 26 25 26 28 29 29 29 29 29 29 28 28 28 28 27 32 35 36 36 36 35 28 25 24 24 24 25 25 26 26 26 26
29 28 28 28 27 27 27 27 26 25 25 24 25 25 27 28 28 28 27 27 27 27 27 27 26 30 35 35 36 36 34 27 25 24 23 23 23 25 25 25 26 27
29 29 29 28 27 27 27 26 27 26 25 20 22 22 23 22 24 24 23 24 25 25 28 27 25 28 34 35 36 36 33 26 25 24 22 22 22 22 25 25 25 27
30 29 29 28 27 27 27 27 27 26 24 22 20 21 21 19 19 21 21 22 22 22 24 26 24 25 30 35 35 36 34 26 25 23 21 21 22 22 22 22 24 25
MSLP
1007.02 1007.18 1007.34 1007.62 1007.78 1007.98 1008.42 1008.90 1009.30 1009.70 1010.14 1010.66 1010.90 1011.10 1011.46 1011.90 1012.94 1013.34 1013.62 1014.18 1014.50 1014.94 1015.38 1015.78 1016.22 1016.66 1017.02 1017.42 1017.74 1018.06 1018.30 1018.50 1018.78 1019.06 1019.26 1019.46 1019.66 1019.90 1020.14 1020.30 1020.54 1020.66
1006.54 1006.78 1006.94 1007.14 1007.38 1007.58 1007.74 1008.14 1008.66 1009.06 1009.46 1009.86 1010.14 1010.70 1011.30 1011.86 1012.14 1012.66 1013.18 1013.58 1014.06 1014.34 1014.74 1015.30 1015.74 1016.10 1016.50 1016.90 1017.26 1017.58 1017.98 1018.30 1018.50 1018.90 1019.10 1019.26 1019.42 1019.78 1019.86 1020.14 1020.38 1020.82
1006.66 1006.74 1006.70 1006.58 1006.46 1006.98 1007.54 1008.06 1008.50 1008.82 1009.02 1009.22 1009.86 1010.30 1010.58 1011.14 1011.74 1012.14 1012.62 1012.98 1013.38 1013.82 1014.30 1014.66 1015.18 1015.62 1015.98 1016.34 1016.74 1017.06 1017.34 1017.74 1018.10 1018.54 1018.82 1018.94 1019.22 1019.42 1019.62 1020.06 1020.42 1020.58
1006.42 1006.66 1006.90 1007.06 1007.30 1007.50 1007.86 1008.14 1008.38 1008.58 1008.90 1009.26 1009.26 1009.70 1010.34 1010.82 1011.30 1011.86 1012.22 1012.62 1012.94 1013.34 1013.74 1014.22 1014.46 1014.94 1015.38 1015.74 1016.22 1016.54 1016.74 1017.10 1017.34 1017.98 1018.34 1018.74 1018.98 1019.14 1019.50 1019.86 1020.18 1020.58
1006.46 1006.50 1006.70 1006.94 1007.30 1007.58 1007.82 1007.94 1008.10 1008.38 1008.70 1008.94 1009.58 1009.86 1010.14 1010.62 1011.02 1011.38 1011.78 1012.18 1012.54 1012.94 1013.42 1013.74 1014.14 1014.46 1014.82 1015.26 1015.54 1015.86 1016.30 1016.66 1017.18 1017.62 1017.98 1018.26 1018.62 1018.90 1019.18 1019.58 1019.86 1020.18
1006.42 1006.46 1006.46 1006.58 1006.78 1007.14 1007.42 1007.54 1007.82 1008.26 1008.54 1008.90 1009.02 1009.66 1009.94 1010.26 1010.46 1010.70 1010.98 1011.38 1011.78 1012.30 1012.86 1013.42 1013.82 1014.14 1014.50 1014.78 1015.18 1015.30 1015.62 1016.10 1016.58 1017.10 1017.50 1017.74 1018.22 1018.66 1018.90 1019.18 1019.46 1019.78
1005.78 1006.06 1006.18 1006.38 1006.58 1006.62 1006.86 1007.10 1007.38 1007.50 1007.62 1007.74 1008.58 1008.86 1009.30 1009.78 1010.06 1010.26 1010.54 1010.78 1011.14 1011.50 1011.90 1012.50 1013.14 1013.74 1014.18 1014.54 1014.82 1015.02 1015.26 1015.46 1016.06 1016.58 1016.82 1017.22 1017.74 1018.26 1018.54 1018.78 1018.98 1019.30
1006.34 1006.50 1006.58 1006.74 1006.70 1006.66 1006.58 1006.62 1006.70 1006.66 1006.70 1007.38 1007.38 1007.50 1008.30 1008.70 1009.34 1009.90 1010.34 1010.66 1010.90 1011.10 1011.38 1011.82 1012.34 1012.90 1013.50 1013.86 1014.18 1014.54 1014.86 1015.22 1015.54 1015.94 1016.30 1016.70 1017.18 1017.58 1017.94 1018.26 1018.62 1018.98
1006.62 1006.78 1007.06 1007.06 1006.94 1006.70 1006.50 1006.26 1006.18 1006.34 1006.78 1006.94 1006.98 1007.50 1007.90 1008.14 1008.66 1009.38 1010.02 1010.62 1010.98 1011.10 1011.22 1011.38 1011.50 1011.98 1012.58 1013.10 1013.42 1013.66 1013.98 1014.50 1014.90 1015.30 1015.58 1015.98 1016.46 1016.70 1017.18 1017.78 1018.34 1018.58
1005.70 1006.14 1006.54 1006.78 1006.94 1006.54 1006.26 1005.86 1005.86 1006.14 1006.50 1006.70 1006.94 1007.50 1007.90 1008.22 1008.50 1008.70 1009.22 1009.78 1010.26 1010.78 1011.02 1010.98 1011.06 1011.22 1011.66 1012.06 1012.50 1012.90 1013.30 1013.70 1014.22 1014.70 1014.94 1015.18 1015.46 1015.94 1016.54 1017.10 1017.46 1018.02
1005.50 1005.78 1005.82 1005.90 1005.98 1005.98 1005.86 1005.78 1006.02 1006.10 1006.34 1006.42 1006.78 1006.94 1007.14 1007.70 1008.06 1008.38 1008.70 1009.02 1009.22 1009.50 1010.02 1010.42 1010.54 1010.66 1010.98 1011.42 1011.86 1012.22 1012.66 1013.22 1013.70 1014.02 1014.26 1014.50 1014.78 1015.14 1015.66 1016.18 1016.70 1016.94
1005.30 1005.58 1005.46 1005.26 1005.14 1005.02 1005.02 1005.30 1005.70 1005.94 1006.02 1006.14 1006.18 1006.30 1006.70 1006.98 1007.26 1007.70 1007.86 1008.02 1008.22 1008.54 1008.98 1009.54 1010.22 1010.50 1010.46 1010.62 1011.06 1011.66 1012.14 1012.62 1013.22 1013.54 1013.66 1013.90 1014.34 1014.74 1015.14 1015.58 1015.94 1016.42
1005.22 1005.18 1005.06 1004.98 1004.90 1004.74 1004.86 1005.10 1005.22 1005.34 1005.58 1005.58 1005.62 1005.66 1005.90 1006.30 1006.66 1006.94 1007.14 1007.38 1007.66 1008.14 1008.46 1008.78 1009.38 1009.86 1010.18 1010.42 1010.70 1011.06 1011.46 1011.82 1012.42 1013.02 1013.34 1013.58 1013.82 1014.18 1014.62 1015.06 1015.50 1015.94
1004.98 1004.82 1004.78 1004.66 1004.54 1004.54 1004.54 1004.58 1004.74 1004.90 1004.98 1005.14 1005.46 1005.34 1005.14 1005.34 1005.70 1006.06 1006.50 1007.06 1007.30 1007.70 1007.98 1008.50 1008.86 1009.22 1009.54 1009.82 1010.14 1010.38 1010.82 1011.18 1011.54 1012.14 1012.78 1013.14 1013.50 1013.90 1014.26 1014.62 1014.98 1015.38
1004.86 1004.66 1004.50 1004.34 1004.22 1004.18 1004.18 1004.26 1004.30 1004.38 1004.58 1004.86 1005.02 1004.94 1004.86 1004.98 1005.38 1005.94 1006.38 1006.78 1007.06 1007.34 1007.74 1008.18 1008.46 1008.58 1008.74 1008.98 1009.42 1009.86 1010.14 1010.50 1010.94 1011.42 1012.06 1012.62 1013.10 1013.54 1013.94 1014.34 1014.70 1014.98
1005.18 1004.90 1004.54 1004.22 1004.14 1004.06 1003.94 1003.90 1004.02 1004.10 1004.18 1004.34 1004.50 1004.70 1004.90 1005.06 1005.38 1005.66 1005.90 1006.06 1006.50 1006.90 1007.30 1007.62 1007.74 1007.86 1008.06 1008.30 1008.54 1008.86 1009.42 1009.98 1010.54 1011.02 1011.46 1011.98 1012.50 1013.10 1013.58 1013.94 1014.22 1014.50
1005.94 1005.54 1005.10 1004.74 1004.34 1004.14 1003.98 1003.94 1003.82 1003.82 1003.90 1003.90 1004.10 1004.42 1004.70 1004.98 1005.30 1005.46 1005.46 1005.58 1005.90 1006.26 1006.62 1006.82 1007.02 1007.18 1007.50 1007.90 1008.22 1008.62 1009.14 1009.58 1010.02 1010.46 1011.02 1011.58 1012.02 1012.30 1012.66 1013.18 1013.74 1014.14
1006.26 1005.90 1005.50 1005.10 1004.78 1004.42 1004.06 1003.86 1003.78 1003.78 1003.74 1003.74 1003.86 1004.06 1004.30 1004.66 1004.82 1004.78 1005.18 1005.42 1005.46 1005.66 1005.90 1006.02 1006.38 1006.70 1007.06 1007.34 1007.70 1008.18 1008.66 1009.14 1009.62 1010.06 1010.54 1010.98 1011.42 1011.82 1012.10 1012.58 1013.10 1013.62
1006.58 1006.42 1006.10 1005.70 1005.22 1004.82 1004.54 1004.34 1004.10 1003.86 1003.58 1003.54 1003.50 1003.66 1004.14 1004.42 1004.46 1004.82 1004.82 1004.94 1005.18 1005.30 1005.42 1005.70 1006.10 1006.38 1006.70 1006.98 1007.34 1007.66 1008.10 1008.66 1009.22 1009.62 1010.06 1010.50 1010.90 1011.26 1011.62 1012.06 1012.58 1013.14
1006.10 1005.94 1005.74 1005.50 1005.26 1004.98 1004.62 1004.34 1004.10 1003.70 1003.30 1003.26 1003.46 1003.86 1004.10 1004.22 1004.50 1004.62 1004.70 1004.78 1004.70 1004.82 1005.02 1005.30 1005.58 1005.86 1006.10 1006.42 1006.82 1007.22 1007.66 1008.22 1008.86 1009.30 1009.66 1010.10 1010.54 1010.94 1011.30 1011.58 1011.98 1012.46
1005.78 1005.54 1005.30 1005.02 1004.82 1004.66 1004.42 1004.14 1003.94 1003.74 1003.58 1003.50 1003.58 1003.62 1003.82 1004.02 1004.22 1004.46 1004.46 1004.58 1004.70 1004.74 1004.86 1004.90 1005.10 1005.54 1005.82 1006.06 1006.38 1006.74 1007.18 1007.78 1008.66 1009.18 1009.54 1009.90 1010.30 1010.66 1010.82 1011.06 1011.38 1011.82
1005.90 1005.62 1005.30 1004.94 1004.66 1004.46 1004.34 1004.18 1004.14 1004.06 1003.90 1003.86 1003.94 1003.94 1004.02 1004.14 1004.30 1004.42 1004.54 1004.62 1004.62 1004.66 1004.62 1004.62 1004.86 1005.06 1005.34 1005.66 1006.06 1006.50 1007.02 1007.74 1008.54 1009.06 1009.42 1009.78 1010.18 1010.50 1010.78 1011.10 1011.30 1011.42
1005.94 1005.82 1005.62 1005.30 1005.06 1004.90 1004.70 1004.66 1004.62 1004.50 1004.42 1004.30 1004.26 1004.14 1004.06 1004.06 1004.06 1004.14 1004.22 1004.38 1004.50 1004.58 1004.58 1004.54 1004.82 1004.86 1004.98 1005.26 1005.66 1006.14 1006.74 1007.54 1008.30 1008.90 1009.30 1009.58 1009.90 1010.26 1010.50 1010.74 1010.94 1011.18
1006.02 1005.98 1005.86 1005.70 1005.62 1005.42 1005.18 1005.06 1004.94 1004.86 1004.70 1004.54 1004.42 1004.22 1004.10 1003.98 1003.98 1004.14 1004.26 1004.38 1004.46 1004.50 1004.46 1004.50 1004.66 1004.74 1004.74 1004.98 1005.26 1005.54 1006.02 1006.94 1007.74 1008.38 1008.98 1009.42 1009.86 1010.26 1010.54 1010.74 1010.82 1010.98
1005.94 1005.90 1005.90 1005.86 1005.78 1005.62 1005.50 1005.30 1005.06 1004.90 1004.74 1004.66 1004.50 1004.30 1004.14 1004.10 1004.14 1004.18 1004.30 1004.38 1004.42 1004.46 1004.50 1004.54 1004.70 1004.86 1004.66 1004.74 1004.94 1005.26 1005.78 1006.66 1007.38 1007.94 1008.54 1009.02 1009.50 1010.10 1010.34 1010.62 1010.82 1010.90
1005.90 1005.74 1005.58 1005.50 1005.42 1005.34 1005.34 1005.30 1005.14 1004.94 1004.70 1004.58 1004.50 1004.42 1004.22 1004.18 1004.18 1004.22 1004.22 1004.26 1004.38 1004.50 1004.54 1004.50 1004.66 1004.82 1004.66 1004.58 1004.66 1004.94 1005.38 1006.26 1006.90 1007.38 1007.86 1008.42 1008.98 1009.38 1009.74 1010.18 1010.34 1010.50
Wind_Speed
12 11 13 12 12 11 12 13 12 13 13 11 13 14 14 13 11 15 15 13 14 14 13 12 11 11 10 10 10 8 8 9 7 7 8 8 7 9 9 9 8 8
14 13 11 11 10 11 12 12 12 13 13 13 13 11 10 11 13 14 14 15 13 14 13 12 12 12 12 11 11 11 9 9 10 6 9 10 8 9 9 9 9 6
11 12 14 15 14 12 11 9 10 11 11 12 10 10 11 11 12 13 14 15 14 14 13 13 13 12 12 12 12 11 11 11 11 9 9 11 9 10 8 8 7 9
12 11 10 10 8 7 7 7 8 9 9 9 13 10 9 9 11 13 13 14 14 14 13 13 14 13 13 13 12 11 12 11 10 10 10 7 8 8 8 8 7 7
11 11 11 9 7 5 6 9 10 9 9 9 5 8 10 10 11 12 12 13 13 13 12 14 13 13 13 12 13 12 11 11 10 11 10 10 9 9 8 9 9 10
9 10 10 10 10 9 9 10 10 9 9 8 11 7 9 11 12 13 14 15 14 14 13 12 13 12 13 13 12 12 12 11 11 12 12 12 10 8 8 9 10 11
12 11 12 10 9 10 11 11 10 12 12 13 9 12 11 12 13 14 14 14 15 15 15 14 14 13 12 12 12 12 12 12 11 13 14 11 10 10 8 9 10 10
7 5 6 6 9 10 12 12 12 13 13 10 14 14 13 15 14 12 12 13 14 15 14 15 14 15 14 13 14 14 13 10 12 14 14 12 11 12 11 10 10 10
6 6 5 6 9 10 12 14 13 12 9 13 13 10 10 12 13 12 12 11 12 13 14 14 16 16 14 14 15 16 16 14 13 14 15 14 14 14 13 11 11 11
8 7 7 9 10 12 14 15 13 10 9 11 9 7 10 10 10 13 12 14 14 13 14 15 16 15 15 16 16 16 16 16 15 15 15 15 15 15 14 13 14 12
8 7 9 11 13 13 15 14 11 10 8 10 9 11 11 11 11 11 13 14 15 17 16 16 16 16 16 16 15 15 15 14 15 15 15 15 15 15 14 15 14 15
8 7 11 13 15 15 15 13 10 10 10 10 11 13 11 12 13 12 14 16 16 16 16 16 14 15 16 16 16 15 14 14 14 14 15 15 14 13 14 14 14 14
7 9 11 12 13 13 11 9 10 11 11 13 12 13 14 13 14 15 14 15 16 14 15 15 15 15 14 14 15 15 16 16 15 15 14 13 13 14 13 13 13 13
9 10 10 11 11 10 10 11 11 11 13 12 10 13 15 15 16 16 14 12 13 14 14 13 14 14 15 15 15 16 15 16 16 15 15 13 12 13 13 13 13 13
11 9 9 9 10 10 10 11 12 12 11 10 12 13 12 13 12 12 12 13 12 13 13 12 13 15 14 15 16 16 16 16 16 16 15 14 13 13 12 12 12 12
13 12 11 11 10 10 11 12 11 11 11 11 12 12 10 10 10 12 13 14 14 13 13 12 13 12 13 19 18 16 16 14 13 14 15 14 14 13 12 13 13 12
10 11 11 11 11 11 10 10 11 10 10 11 10 10 11 10 10 12 14 13 14 14 15 14 13 12 17 23 24 22 15 14 15 14 14 14 14 15 15 14 13 12
11 11 10 10 10 10 11 10 9 8 9 9 8 9 10 9 12 14 12 13 13 14 15 14 13 12 21 24 25 24 20 15 13 13 13 14 14 14 13 13 14 13
8 9 8 8 9 9 9 8 8 8 8 7 10 9 7 10 13 12 14 13 12 14 14 13 12 15 21 24 25 25 25 19 12 13 13 14 14 14 14 14 13 11
11 11 10 10 9 8 7 7 7 8 8 6 5 5 8 10 10 12 12 12 14 14 13 12 13 15 23 24 25 25 25 21 12 13 13 13 14 14 13 14 15 14
13 12 12 12 11 9 7 6 6 6 6 5 6 8 10 11 11 12 12 11 11 11 11 12 11 15 21 24 24 25 25 20 11 11 11 11 12 13 14 14 15 13
12 12 13 12 12 10 9 9 7 6 7 5 5 5 5 5 7 7 9 11 11 11 11 12 9 18 22 23 24 24 25 14 11 11 10 11 11 12 12 11 8 7
10 10 11 12 11 10 9 8 8 8 7 4 5 6 7 8 8 8 9 10 10 10 11 10 8 15 22 23 24 25 19 11 11 10 9 11 11 12 12 11 12 10
8 8 10 10 10 10 10 8 6 6 6 4 6 7 8 8 6 6 6 7 9 10 11 10 9 13 22 23 24 27 19 13 12 11 10 10 9 10 9 8 10 19
7 7 7 7 8 9 8 9 8 7 5 4 6 5 6 4 4 6 5 5 6 8 8 10 7 10 20 22 24 26 18 11 11 11 11 11 10 10 10 6 9 14
6 6 7 7 8 8 7 7 6 6 5 5 5 5 6 4 4 5 6 6 5 6 7 8 8 8 14 23 24 26 23 13 11 13 13 13 11 11 12 9 9 10
Wind_Direction
202 202 203 202 204 200 191 190 191 191 194 192 197 200 197 196 177 188 194 188 192 192 192 191 185 185 184 181 182 179 184 189 182 177 181 176 178 173 177 177 180 183
207 203 204 204 205 202 202 194 191 192 193 196 200 193 194 184 191 185 189 192 190 196 190 186 188 187 182 181 181 181 181 182 185 177 178 182 182 178 185 180 177 166
208 210 209 208 208 202 197 190 191 198 198 201 192 192 192 187 182 188 189 191 192 192 189 188 185 186 185 183 181 183 184 183 186 179 179 187 178 183 185 172 172 177
213 217 220 225 222 212 196 189 199 200 200 193 201 192 179 184 183 185 190 191 192 192 191 186 189 185 184 184 179 187 187 187 186 172 181 182 185 179 175 172 170 170
218 214 214 216 214 203 192 202 202 201 201 204 172 180 182 177 184 187 188 192 193 193 189 191 188 188 184 184 184 185 184 185 177 175 180 184 185 178 176 169 173 177
224 220 216 209 201 195 197 203 202 197 198 195 201 177 189 184 189 188 188 189 191 189 189 189 190 190 186 186 185 191 183 183 182 176 183 186 182 181 172 177 173 180
220 215 218 211 202 200 203 205 201 200 199 199 169 194 184 191 193 194 192 192 188 190 188 187 188 188 188 186 189 192 190 187 177 181 185 187 175 180 180 178 182 183
250 247 234 220 218 214 216 212 210 208 205 186 199 197 184 193 194 192 194 192 192 193 190 188 187 188 186 187 190 191 191 187 184 183 187 185 178 184 183 184 181 181
248 246 247 237 227 225 224 221 219 216 199 203 208 197 195 194 190 187 190 191 197 198 194 192 190 189 187 189 194 192 191 190 187 186 187 184 186 189 184 178 180 188
224 215 220 226 232 233 233 229 223 217 203 210 205 189 195 199 191 190 185 190 195 197 199 198 194 192 188 193 193 192 193 192 188 189 191 191 190 186 182 182 185 182
237 219 221 222 226 229 235 235 229 222 207 209 194 200 197 190 197 191 193 192 196 198 198 200 200 194 191 192 194 194 194 192 191 191 193 194 192 188 183 183 185 190
241 229 230 230 230 232 232 230 225 221 214 209 201 204 197 198 196 194 197 200 201 199 197 199 196 197 197 193 191 190 192 193 195 196 196 193 191 189 186 186 187 185
253 241 237 238 237 238 238 230 225 222 216 215 205 204 200 199 200 200 204 202 203 199 200 196 195 197 197 194 192 191 192 192 192 196 197 194 193 189 187 187 185 182
265 254 250 247 245 241 236 231 226 222 221 219 206 210 207 203 201 203 204 202 204 201 203 196 196 197 196 194 193 192 193 195 193 191 192 193 190 189 187 187 185 183
287 277 266 258 250 246 241 235 230 226 223 216 212 216 214 211 206 201 200 203 205 203 200 196 199 200 198 194 193 194 194 195 193 191 189 190 188 188 187 185 186 186
302 294 286 277 268 254 245 239 234 228 220 217 218 217 216 210 204 203 204 204 201 201 199 199 205 205 199 195 192 192 191 192 190 191 189 189 186 184 185 187 187 185
307 296 289 281 269 261 256 247 236 229 222 221 218 211 212 208 202 206 208 205 202 199 200 205 206 204 195 197 197 192 187 189 189 190 189 189 189 186 186 183 184 183
332 315 297 283 275 266 259 251 246 234 227 220 216 210 208 202 209 211 208 205 205 204 205 207 207 199 196 197 196 193 187 188 189 189 187 190 191 189 187 182 180 178
340 330 310 292 274 267 266 260 245 237 231 219 217 215 203 210 215 209 212 208 205 207 209 207 210 198 198 196 196 195 191 185 190 188 187 192 191 190 186 182 179 173
349 344 336 322 306 288 273 259 248 241 236 228 223 205 210 218 217 217 215 210 209 208 209 206 208 197 197 196 196 195 191 185 190 187 190 191 191 189 187 184 180 175
350 346 340 333 326 316 304 286 268 266 256 234 217 213 214 216 214 216 217 214 213 210 210 209 206 193 198 197 196 194 192 183 184 187 189 192 191 192 192 185 181 178
348 344 339 336 333 327 319 303 292 276 264 255 240 239 235 232 232 223 220 217 214 210 212 212 201 193 197 196 195 193 189 181 183 186 188 189 190 191 188 185 171 149
345 343 338 335 331 327 315 302 293 285 278 264 242 240 231 225 226 218 218 217 214 213 212 213 200 196 196 195 194 190 185 178 179 183 187 188 190 187 185 181 180 171
340 341 336 332 328 321 310 299 286 279 271 248 235 238 234 232 225 229 224 218 215 214 211 208 204 196 196 195 193 192 182 175 177 181 183 185 185 186 186 185 181 181
331 335 333 326 321 312 305 299 288 272 262 244 242 243 245 242 224 224 228 221 221 215 210 208 199 197 199 198 195 193 183 170 173 180 180 185 178 179 185 169 181 187
322 325 324 325 318 310 306 293 287 283 265 245 246 238 246 232 221 221 220 223 212 209 213 207 196 195 202 201 198 196 188 168 177 179 186 182 177 177 177 179 173 179